Wind_Speed
12 4 6 7 6 6 6 6 4 6 7 8 8 8 6 3 5 8 9 8 9 8 8 10 9 9 9 9 10 10 11 12 15 14 13 13 12 13 14 14 15 14 13
12 5 7 6 7 7 8 7 5 5 8 9 8 8 7 6 5 6 9 7 7 9 10 11 10 10 10 12 11 11 11 11 11 13 14 13 13 12 12 13 13 13 14
12 9 8 10 12 12 10 8 6 6 8 9 8 8 7 5 6 8 9 11 10 11 10 11 11 12 12 11 11 12 10 10 11 10 10 11 12 11 10 9 9 10 11
12 9 7 2 10 11 11 11 8 7 8 9 8 8 6 5 4 7 11 10 10 16 16 10 15 9 14 12 12 12 12 10 10 10 8 8 9 9 8 7 6 5 7
11 12 9 6 4 11 13 12 11 9 10 11 10 8 7 5 4 3 2 1 8 4 6 10 12 8 19 19 13 12 12 11 10 10 9 7 7 7 6 6 6 4 3
14 15 13 8 7 10 14 13 12 12 12 12 11 11 10 8 6 2 1 3 4 8 5 12 16 11 22 23 18 13 12 11 10 9 9 9 6 6 6 5 5 5 4
17 18 17 13 13 10 12 14 15 14 14 14 13 13 12 10 8 6 4 5 5 6 7 4 9 15 22 22 20 14 13 10 9 9 8 7 7 6 6 5 5 5 5
19 21 20 18 16 15 16 16 17 17 17 16 15 15 13 10 8 7 6 5 5 4 5 6 3 9 23 17 18 15 12 10 8 8 8 7 5 6 5 5 4 4 4
21 22 22 22 19 19 19 20 20 20 20 21 19 17 14 13 11 9 6 5 5 4 3 4 6 7 11 18 18 15 14 12 8 7 7 7 4 4 4 5 6 5 4
20 25 25 24 23 19 24 25 25 24 22 20 19 16 15 14 12 11 9 7 7 6 4 4 4 6 8 17 14 15 10 9 7 5 5 6 5 6 4 3 3 5 7
22 24 25 25 23 23 24 26 28 26 18 22 23 21 21 19 17 15 13 11 9 7 7 5 5 7 9 7 9 13 10 15 7 5 6 3 1 2 5 6 1 2 5
20 21 24 25 25 24 25 26 23 23 21 20 19 25 25 23 21 18 16 13 11 9 10 9 10 10 10 11 13 11 10 7 6 6 7 4 6 3 5 3 3 2 3
18 20 22 24 25 24 24 24 24 24 23 22 20 27 29 27 25 23 20 19 17 16 14 13 12 13 13 13 14 14 14 15 15 15 13 13 12 10 8 6 5 5 5
21 22 22 22 21 24 26 26 26 26 25 26 24 25 30 30 28 26 24 22 20 19 17 16 15 15 16 16 16 16 16 17 17 15 15 16 13 12 12 10 8 9 8
21 23 23 23 24 25 25 27 28 28 28 28 27 26 29 32 31 29 28 25 24 22 21 19 19 18 18 19 19 20 20 19 17 17 18 18 16 15 13 11 9 12 11
22 23 23 25 25 25 26 27 28 29 31 30 29 29 28 32 33 32 30 29 27 26 24 23 22 21 20 19 21 21 21 21 22 20 20 20 19 17 17 15 14 11 9
21 22 23 25 25 27 29 28 29 30 31 32 32 31 29 30 32 33 32 31 30 29 27 25 25 24 23 21 21 22 22 22 22 22 22 22 21 21 21 21 19 18 17
25 25 26 25 26 28 25 29 31 32 33 33 33 33 31 30 31 33 33 34 32 32 30 28 27 26 24 23 22 22 22 22 22 22 21 22 21 21 22 23 23 24 26
32 29 29 27 28 27 31 30 31 32 33 33 33 32 31 30 30 32 33 33 34 34 34 32 30 29 27 25 24 23 23 23 22 23 23 23 23 23 23 24 24 26 28
33 32 31 30 30 32 30 31 33 32 34 33 33 33 32 30 29 31 33 34 33 37 36 34 32 31 28 27 26 25 24 24 24 25 25 25 25 25 25 26 27 29 30
37 34 34 33 33 31 36 33 40 36 33 32 31 32 32 30 29 30 33 34 35 36 35 34 32 31 29 28 27 27 27 27 27 27 27 27 27 27 28 28 29 30 31
32 34 34 33 31 32 31 39 31 34 31 33 32 32 32 31 29 29 31 32 34 36 35 32 32 30 30 30 30 30 30 30 30 29 29 29 28 28 28 28 29 30 32
32 32 31 30 30 31 33 30 37 32 38 35 31 31 33 30 30 31 32 32 33 31 30 31 31 31 33 32 32 32 32 33 31 31 31 31 31 31 31 31 30 30 31
31 30 29 28 27 27 28 32 33 35 34 32 32 32 33 33 31 31 32 32 31 31 31 31 31 33 34 34 33 32 32 32 32 32 32 32 32 33 32 32 32 31 31
30 29 28 27 26 26 27 27 31 34 35 36 36 35 34 33 32 30 30 29 28 28 29 29 29 30 31 33 33 33 33 33 33 33 33 32 33 32 32 32 32 32 32
31 30 29 28 27 27 27 29 30 32 33 33 33 34 34 33 31 30 30 30 30 30 30 30 31 31 31 32 32 33 33 33 33 33 32 32 32 32 32 32 32 32 32
Wind_Direction
209 171 162 185 199 184 165 147 135 148 155 172 182 185 189 192 192 189 181 173 169 169 169 159 155 153 138 132 135 139 136 132 136 135 131 130 125 123 114 106 97 90 87
190 212 204 219 196 196 181 169 158 152 163 171 184 191 203 212 212 194 183 181 180 176 182 192 162 152 144 139 133 132 130 130 136 140 136 134 133 129 119 113 104 95 89
208 223 236 249 220 192 196 180 178 163 165 173 181 182 184 200 197 199 192 194 196 188 178 152 173 153 146 145 143 135 131 127 129 142 145 142 138 138 136 127 115 103 93
213 203 173 241 217 209 197 189 194 182 169 166 170 175 165 157 173 202 193 175 176 176 158 157 158 182 165 155 144 141 141 142 135 133 141 152 155 154 156 151 141 126 108
227 200 208 232 219 203 195 196 200 191 182 170 170 170 158 146 156 181 140 250 126 38 120 156 189 200 174 163 144 145 143 147 150 147 145 142 153 164 176 174 175 177 155
229 225 223 220 203 192 194 206 203 196 187 182 179 180 171 169 175 185 92 77 63 67 157 205 212 226 179 160 155 150 142 138 143 149 158 151 163 157 152 163 170 186 204
220 223 221 206 223 230 213 206 202 199 195 190 190 187 184 183 182 178 156 140 114 95 92 152 194 216 174 149 152 146 132 122 127 137 146 159 170 169 165 153 146 148 155
217 219 221 215 227 228 219 213 209 205 205 207 203 204 205 204 197 188 176 155 142 138 124 101 125 187 171 138 145 155 136 125 124 130 122 114 136 175 176 172 159 146 141
211 211 216 233 226 221 216 208 208 210 208 210 214 214 213 210 209 210 206 196 193 182 158 143 120 123 171 186 185 161 143 133 137 132 118 112 114 132 142 177 187 177 162
227 220 217 228 231 212 212 210 213 213 220 223 220 216 215 215 216 215 215 219 219 226 220 171 174 155 173 196 213 175 178 155 145 160 162 145 107 95 93 125 132 182 188
231 225 223 226 224 216 218 218 219 225 223 224 219 214 218 220 219 219 219 222 224 230 241 231 208 209 194 202 209 216 223 223 164 212 222 187 147 10 342 2 51 134 184
233 236 233 230 229 232 230 231 228 225 226 229 217 215 220 221 222 221 223 229 231 229 233 226 223 220 219 211 216 208 203 193 191 215 256 249 248 297 292 291 253 208 190
234 229 235 238 236 234 232 229 231 229 228 228 224 215 221 223 225 224 223 224 224 225 231 235 231 226 222 224 227 226 221 213 220 219 215 225 224 234 260 254 235 240 214
231 221 224 233 239 236 230 229 229 230 229 229 229 217 221 224 227 227 227 226 227 230 231 232 236 232 230 228 230 234 232 228 230 228 234 233 235 239 244 252 243 232 237
225 229 237 237 235 234 232 229 228 231 233 232 231 227 224 225 226 228 229 229 227 228 232 233 234 240 240 239 236 232 231 235 235 235 234 238 238 242 249 250 254 236 235
235 241 243 242 235 233 231 232 232 233 237 239 240 237 231 230 228 228 230 231 230 228 229 232 234 236 243 248 239 238 237 236 237 237 241 244 243 243 246 247 242 242 234
238 237 238 238 235 232 233 232 231 233 236 241 244 245 238 234 231 229 229 232 232 230 230 231 235 239 242 245 243 239 236 237 241 241 239 243 244 242 243 241 243 241 236
240 230 228 227 230 234 231 232 235 237 238 239 241 244 244 238 232 230 229 229 232 235 232 232 235 240 245 251 245 239 240 240 239 242 245 245 246 244 244 245 243 243 241
240 234 231 229 229 229 225 233 236 235 238 242 245 243 245 242 234 228 227 231 231 233 236 234 232 236 240 244 245 243 241 241 242 243 243 243 246 247 247 249 250 249 251
233 228 228 230 230 232 234 238 239 239 239 240 241 242 242 242 238 232 227 228 231 235 236 239 238 236 238 241 243 243 242 242 242 242 243 245 247 249 250 250 251 252 252
228 224 225 228 228 229 230 220 232 237 242 243 244 247 245 244 240 234 233 230 231 237 241 242 240 237 239 242 243 244 243 244 244 245 246 247 248 250 253 254 253 253 254
220 221 223 226 228 231 230 230 227 239 240 243 245 245 243 241 240 234 232 231 235 237 234 233 237 235 237 240 241 242 244 245 246 248 251 253 255 256 256 256 255 255 255
217 219 223 227 231 232 230 222 227 230 236 243 245 245 246 243 238 236 233 233 233 237 235 235 232 236 237 241 241 241 242 243 245 246 249 251 254 255 257 259 259 257 256
214 215 217 219 221 222 222 224 226 230 236 240 241 243 244 242 238 236 235 236 237 233 236 237 239 236 236 240 244 245 246 247 248 249 251 252 253 254 255 256 258 259 258
209 211 215 215 216 218 220 221 222 228 230 234 237 240 242 243 241 238 236 236 237 240 242 243 243 242 241 241 243 245 247 248 250 251 252 253 254 255 256 257 257 257 257
210 211 214 215 217 218 220 223 226 230 232 235 237 240 242 242 240 237 232 232 234 236 238 240 241 242 242 243 245 246 248 249 250 252 254 255 255 257 258 258 260 260 261
Height
3135 3135 3137 3138 3140 3141 3143 3144 3145 3145 3147 3149 3151 3153 3154 3155 3156 3158 3160 3160 3162 3164 3166 3167 3168 3170 3170 3172 3173 3174 3175 3176 3177 3179 3180 3181 3183 3184 3185 3186 3187 3188 3189
3134 3135 3136 3137 3138 3141 3142 3144 3145 3146 3148 3149 3151 3153 3154 3155 3156 3158 3159 3161 3162 3164 3165 3167 3169 3171 3172 3173 3174 3177 3178 3178 3179 3181 3182 3183 3184 3186 3187 3188 3189 3190 3191
3132 3134 3135 3136 3137 3138 3141 3143 3145 3146 3148 3150 3151 3152 3154 3155 3157 3157 3158 3160 3162 3164 3165 3167 3170 3172 3172 3174 3176 3177 3179 3180 3181 3182 3183 3185 3186 3187 3188 3190 3191 3192 3193
3130 3132 3133 3134 3135 3137 3140 3142 3144 3146 3148 3149 3151 3153 3154 3156 3157 3158 3159 3160 3160 3161 3163 3167 3169 3172 3173 3175 3177 3178 3179 3181 3182 3184 3185 3186 3188 3189 3189 3190 3192 3194 3195
3129 3130 3131 3133 3135 3136 3139 3141 3144 3145 3148 3149 3151 3153 3154 3156 3157 3159 3161 3160 3159 3162 3161 3166 3169 3171 3172 3174 3176 3178 3180 3181 3183 3184 3186 3188 3189 3190 3191 3192 3193 3195 3196
3126 3128 3129 3132 3134 3136 3138 3140 3142 3144 3147 3149 3151 3153 3154 3156 3158 3159 3160 3162 3164 3161 3163 3166 3170 3170 3172 3174 3177 3179 3181 3182 3184 3185 3186 3188 3190 3191 3192 3193 3194 3195 3197
3123 3125 3127 3129 3132 3134 3137 3139 3141 3143 3145 3148 3150 3152 3154 3156 3158 3159 3161 3163 3165 3164 3165 3167 3168 3170 3170 3173 3177 3179 3181 3183 3184 3186 3187 3188 3189 3191 3192 3194 3194 3195 3197
3120 3122 3124 3127 3129 3131 3135 3137 3139 3142 3144 3147 3149 3151 3152 3154 3156 3159 3161 3162 3164 3166 3167 3168 3168 3169 3172 3172 3176 3179 3181 3183 3186 3187 3188 3190 3191 3192 3193 3194 3196 3196 3197
3118 3120 3122 3123 3126 3130 3131 3134 3137 3139 3141 3144 3146 3148 3151 3153 3155 3158 3160 3162 3163 3165 3167 3169 3170 3171 3172 3175 3178 3179 3181 3184 3187 3189 3190 3191 3192 3193 3194 3195 3196 3197 3198
3114 3117 3119 3120 3122 3124 3127 3130 3132 3134 3137 3141 3145 3149 3150 3152 3154 3157 3159 3162 3164 3165 3167 3169 3170 3172 3173 3175 3177 3178 3181 3184 3185 3188 3190 3192 3193 3193 3194 3195 3196 3197 3198
3110 3112 3114 3117 3119 3120 3123 3124 3128 3131 3136 3139 3142 3145 3147 3149 3152 3155 3158 3160 3163 3165 3166 3168 3170 3171 3174 3176 3177 3179 3182 3182 3185 3187 3190 3192 3193 3194 3195 3194 3196 3198 3199
3106 3109 3111 3113 3115 3118 3120 3123 3127 3130 3133 3135 3138 3141 3144 3146 3149 3153 3156 3159 3161 3164 3165 3167 3169 3171 3173 3175 3177 3180 3182 3184 3186 3188 3189 3191 3192 3194 3196 3196 3197 3198 3199
3101 3104 3107 3109 3112 3115 3117 3120 3123 3126 3128 3131 3134 3137 3139 3142 3146 3149 3152 3155 3157 3160 3163 3165 3167 3169 3171 3173 3175 3177 3180 3182 3184 3187 3189 3190 3191 3194 3195 3196 3197 3199 3198
3096 3099 3102 3105 3108 3110 3113 3116 3119 3121 3124 3127 3129 3132 3135 3138 3141 3145 3148 3151 3154 3157 3160 3162 3164 3167 3169 3171 3173 3175 3178 3180 3182 3184 3186 3188 3190 3192 3194 3196 3197 3198 3199
3092 3095 3098 3100 3103 3106 3109 3111 3115 3117 3119 3122 3125 3127 3130 3133 3136 3140 3143 3147 3150 3153 3156 3159 3161 3164 3166 3168 3170 3172 3174 3177 3179 3181 3184 3185 3187 3190 3192 3195 3196 3196 3197
3087 3090 3093 3096 3098 3101 3103 3106 3110 3113 3115 3117 3119 3122 3125 3128 3131 3135 3139 3142 3145 3149 3152 3155 3157 3160 3162 3164 3166 3168 3170 3173 3176 3178 3181 3183 3185 3187 3190 3191 3193 3195 3195
3081 3084 3087 3090 3092 3095 3098 3100 3103 3107 3110 3112 3114 3117 3120 3123 3126 3130 3134 3137 3140 3143 3146 3149 3152 3155 3157 3160 3161 3164 3167 3169 3171 3174 3177 3179 3182 3184 3186 3189 3190 3192 3194
3075 3078 3080 3083 3087 3089 3091 3095 3099 3101 3103 3106 3108 3111 3114 3117 3121 3124 3128 3132 3136 3138 3141 3144 3147 3150 3152 3154 3157 3159 3161 3164 3166 3169 3171 3174 3176 3179 3182 3184 3186 3189 3190
3067 3071 3075 3079 3081 3084 3088 3090 3092 3095 3098 3100 3103 3106 3108 3111 3114 3118 3122 3126 3130 3133 3135 3139 3142 3145 3147 3150 3151 3154 3156 3159 3161 3164 3167 3169 3171 3174 3177 3179 3182 3184 3184
3058 3063 3067 3071 3075 3077 3080 3082 3086 3089 3092 3094 3097 3099 3102 3105 3109 3112 3116 3121 3124 3127 3130 3133 3136 3139 3142 3144 3146 3149 3151 3154 3157 3159 3162 3164 3166 3169 3171 3174 3176 3178 3178
3050 3055 3059 3063 3067 3070 3074 3078 3080 3083 3087 3089 3092 3094 3097 3100 3103 3106 3110 3113 3117 3120 3124 3127 3130 3133 3136 3138 3141 3143 3146 3148 3151 3153 3156 3158 3161 3163 3165 3167 3170 3171 3172
3043 3048 3052 3056 3060 3063 3067 3072 3075 3079 3082 3084 3086 3088 3091 3094 3097 3100 3103 3107 3110 3113 3117 3121 3124 3128 3131 3133 3135 3137 3139 3142 3144 3146 3149 3151 3153 3156 3158 3160 3162 3164 3165
3037 3042 3046 3049 3053 3056 3060 3064 3069 3073 3075 3078 3081 3083 3085 3088 3091 3094 3097 3101 3104 3107 3111 3114 3118 3121 3124 3126 3128 3131 3133 3135 3138 3140 3143 3145 3147 3149 3151 3152 3154 3156 3158
3031 3036 3039 3043 3046 3049 3053 3057 3061 3066 3068 3072 3074 3077 3079 3082 3085 3088 3091 3095 3098 3101 3105 3108 3111 3114 3117 3120 3122 3124 3126 3129 3131 3134 3136 3138 3140 3142 3143 3145 3147 3149 3151
3025 3029 3033 3037 3040 3043 3046 3050 3054 3057 3061 3063 3066 3069 3072 3075 3079 3082 3085 3089 3092 3095 3098 3102 3105 3108 3111 3114 3116 3117 3119 3121 3124 3126 3128 3131 3132 3134 3136 3138 3139 3141 3143
3019 3023 3027 3031 3035 3038 3040 3043 3046 3049 3052 3055 3059 3062 3066 3069 3072 3076 3079 3082 3086 3089 3092 3095 3098 3101 3104 3106 3109 3111 3112 3115 3116 3118 3121 3122 3124 3126 3128 3130 3131 3133 3135